[[{"header":{"parameterUnit":"m.s-1","parameterCategory":1,"la1":30.2991,"la2":30.254,"lo1":-89.0895,"lo2":-89.0444,"dy":0.0017,"dx":0.0017,"nx":28,"ny":28,"refTime":"2024-10-16T21:00:00:Z","depth":0,"parameterNumber":2,"parameterNumberName":"U-component_of_WINDS"},"data":[0,0,0,0,0,0,0,0,0,0,0,0,0,0,0,0,0,0,0,0,0,0,0,0,0,0,0,0,0,0,0,0,0,0,0,0,0,0,0,0,0,0,0,0,0,0,0,0,0,0,0,0,0,0,0,0,0,0,-3.4758,-3.4758,0,-3.4742,-3.4742,-3.4741,-3.4627,-3.4624,-3.4621,-3.4619,-3.4606,-3.4608,-3.461,0,0,0,0,0,0,0,0,0,0,0,0,0,-3.4694,-3.4696,-3.4758,-3.4758,-3.4757,-3.4742,-3.4742,-3.4741,-3.4627,-3.4624,-3.4621,-3.4617,-3.4605,-3.4608,-3.461,0,0,0,0,0,0,0,0,0,0,0,0,0,-3.4704,-3.4696,-3.4758,-3.4699,-3.4693,-3.4742,-3.4742,-3.4741,-3.4628,-3.4624,-3.462,-3.4616,-3.4604,-3.4607,-3.4611,-3.4716,0,0,-3.4621,-3.4623,0,0,0,0,0,0,0,0,-3.4704,-3.4707,-3.4708,-3.4703,-3.4697,-3.4682,-3.4714,-3.4733,-3.4629,-3.4653,-3.4619,-3.4614,-3.4635,-3.4635,-3.4642,-3.4716,-3.4715,-3.4622,-3.4624,-3.4625,-3.4626,0,0,0,0,0,0,0,-3.4703,-3.4707,-3.4752,-3.4708,-3.4701,-3.4674,-3.4671,-3.4717,-3.4668,-3.4651,-3.4642,-3.4642,-3.4631,-3.4639,-3.4641,-3.4715,-3.4622,-3.4625,-3.4627,-3.4628,-3.4877,-3.4882,0,0,0,0,0,0,-3.471,-3.4707,-3.4752,-3.4751,-3.469,-3.4679,-3.4675,-3.4691,-3.4667,-3.4659,-3.4645,-3.4636,-3.4635,-3.4637,-3.464,-3.4763,-3.4625,-3.4628,-3.463,-3.4873,-3.4878,-3.4883,0,0,0,0,0,0,-3.4709,-3.4715,-3.4753,-3.4727,-3.4729,-3.4684,-3.4703,-3.4693,-3.47,-3.4663,-3.4654,-3.4662,-3.4632,-3.4635,-3.4698,-3.4761,-3.463,-3.4633,-3.4867,-3.4874,-3.4881,-3.501,0,0,0,0,0,0,-3.4708,-3.4716,-3.4754,-3.4728,-3.4731,-3.4811,-3.4707,-3.4696,-3.4706,-3.4694,-3.4676,-3.4669,-3.4629,-3.4694,-3.4702,-3.4763,-3.4636,-3.4861,-3.487,-3.4879,-3.5,-3.502,-3.5038,0,0,0,0,0,-3.4706,-3.4792,-3.4757,-3.4763,-3.4778,-3.4814,-3.4816,-3.4767,-3.4712,-3.4751,-3.4727,-3.467,-3.4753,-3.4701,-3.4709,-3.4773,-3.4857,-3.4868,-3.4878,-3.4991,-3.5016,-3.5038,0,0,0,0,0,0,-3.4827,-3.4787,-3.4748,-3.4827,-3.4825,-3.4795,-3.4843,-3.4794,-3.4808,-3.4797,-3.4736,-3.4733,-3.4807,-3.4796,-3.4739,-3.4875,-3.4795,-3.4808,-3.4879,-3.4902,-3.4921,-3.4923,-3.4638,0,0,0,0,0,-3.4862,-3.4894,-3.4858,-3.4932,-3.4932,-3.4888,-3.4902,-3.4864,-3.486,-3.4859,-3.4839,-3.4838,-3.4864,-3.4883,-3.4904,-3.4998,-3.4993,-3.5046,-3.5065,-3.508,-3.5092,-3.5143,-3.5166,-3.4917,-3.4917,-3.4917,0,0,-3.4937,-3.4919,-3.4943,-3.4956,-3.4949,-3.4985,-3.4888,-3.4929,-3.4956,-3.4865,-3.4924,-3.491,-3.4905,-3.4985,-3.5019,-3.4978,-3.516,-3.5094,-3.5106,-3.5109,-3.5156,-3.518,-3.5201,-3.4924,-3.4923,-3.4921,0,0,-3.509,-3.5079,-3.514,-3.5136,-3.5128,-3.5098,-3.5113,-3.5091,-3.5078,-3.5136,-3.5069,-3.51,-3.5146,-3.5145,-3.5151,-3.5307,-3.5256,-3.5316,-3.5415,-3.5466,-3.5485,-3.5502,-3.556,-3.5581,-3.5328,-3.5328,-3.5328,0,-3.5184,-3.5233,-3.5178,-3.5224,-3.5233,-3.5152,-3.5214,-3.5213,-3.5213,-3.5222,-3.5176,-3.5232,-3.5223,-3.5302,-3.5341,-3.5347,-3.5364,-3.5318,-3.5487,-3.5503,-3.5519,-3.5572,-3.5594,-3.5335,-3.5334,-3.5334,-3.5333,0,-3.535,-3.5386,-3.5436,-3.5437,-3.5451,-3.5506,-3.546,-3.5481,-3.5443,-3.5419,-3.548,-3.5466,-3.5485,-3.5501,-3.5464,-3.5576,-3.5551,-3.5497,-3.5416,-3.5551,-3.56,-3.5621,-3.5346,-3.5343,-3.5341,-3.5339,0,0,-3.5578,-3.5549,-3.5569,-3.5569,-3.5555,-3.5582,-3.5634,-3.565,-3.5671,-3.5674,-3.5717,-3.5758,-3.5708,-3.5715,-3.5678,-3.5722,-3.5848,-3.5662,-3.5661,-3.5699,-3.5973,-3.6015,-3.6039,-3.5814,-3.5818,-3.5821,-3.5974,0,-3.5727,-3.5811,-3.5764,-3.5856,-3.589,-3.5814,-3.5859,-3.5857,-3.5836,-3.5863,-3.584,-3.5871,-3.5802,-3.5806,-3.5846,-3.5825,-3.5903,-3.5813,-3.5855,-3.5857,-3.5859,-3.6065,-3.6108,-3.6254,-3.5993,-3.5996,-3.5998,0,-3.5911,-3.5922,-3.6017,-3.5998,-3.601,-3.6052,-3.6065,-3.609,-3.6086,-3.6068,-3.6077,-3.603,-3.6081,-3.6001,-3.6071,-3.6011,-3.6026,-3.6018,-3.6023,-3.6025,-3.5937,-3.6074,-3.6299,-3.6321,-3.6028,-3.6026,-3.6024,0,-3.607,-3.6108,-3.617,-3.6173,-3.6152,-3.6183,-3.6176,-3.6168,-3.6182,-3.6194,-3.6203,-3.6221,-3.6231,-3.6247,-3.6207,-3.6152,-3.6284,-3.62,-3.6272,-3.6274,-3.6304,-3.6302,-3.6535,-3.6312,-3.6312,-3.6311,-3.6311,0,-3.6241,-3.6303,-3.6242,-3.628,-3.6348,-3.6294,-3.6363,-3.6348,-3.6342,-3.6378,-3.6314,-3.6349,-3.6293,-3.6323,-3.6292,-3.6357,-3.6361,-3.635,-3.6341,-3.6356,-3.6358,-3.6365,-3.6355,-3.6317,-3.6316,-3.6315,-3.6314,0,-3.6429,-3.6391,-3.6454,-3.6429,-3.6425,-3.6476,-3.6456,-3.6491,-3.6467,-3.6513,-3.6521,-3.6483,-3.6515,-3.6476,-3.6506,-3.6485,-3.6573,-3.6548,-3.6574,-3.6568,-3.6642,-3.6637,-3.6888,-3.6919,-3.6676,-3.6679,-3.6681,0,-3.6541,-3.6587,-3.6568,-3.6587,-3.6583,-3.6615,-3.6629,-3.6578,-3.6595,-3.6596,-3.6632,-3.6659,-3.6678,-3.6734,-3.671,-3.6733,-3.6709,-3.6796,-3.6712,-3.6727,-3.6712,-3.6711,-3.6716,-3.6814,-3.6816,-3.6819,-3.6821,0,-3.6745,-3.6724,-3.6746,-3.6763,-3.6781,-3.6792,-3.6798,-3.6817,-3.6764,-3.6788,-3.682,-3.6835,-3.6865,-3.6894,-3.691,-3.6904,-3.6855,-3.6847,-3.6865,-3.6882,-3.6895,-3.689,-3.6622,-3.6842,-3.684,-3.6838,-3.6837,-3.6836,-3.6899,-3.6937,-3.693,-3.6957,-3.6956,-3.6964,-3.6997,-3.6977,-3.7002,-3.7022,-3.6991,-3.7032,-3.7029,-3.7046,-3.7046,-3.7079,-3.7042,-3.7068,-3.7074,-3.7082,-3.7094,-3.689,-3.7081,-3.7081,-3.708,-3.708,-3.7079,0,-3.71,-3.7092,-3.7118,-3.7129,-3.7151,-3.7101,-3.7106,-3.7128,-3.7165,-3.7166,-3.7186,-3.7224,-3.7252,-3.7231,-3.7255,-3.7285,-3.7263,-3.7293,-3.7291,-3.7291,-3.7125,-3.7107,-3.7311,-3.7311,-3.7311,-3.7311,-3.731,-3.731,-3.7208,-3.727,-3.7249,-3.7311,-3.7302,-3.7341,-3.7348,-3.7356,-3.7356,-3.7402,-3.7424,-3.741,-3.7403,-3.7426,-3.745,-3.7443,-3.7456,-3.7494,-3.748,-3.7325,-3.7302,-3.7281,-3.7264,-3.7497,-3.7497,-3.7643,-3.7644,-3.7645]},{"header":{"parameterUnit":"m.s-1","parameterCategory":1,"la1":30.2991,"la2":30.254,"lo1":-89.0895,"lo2":-89.0444,"dy":0.0017,"dx":0.0017,"nx":28,"ny":28,"refTime":"2024-10-16T21:00:00:Z","depth":0,"parameterNumber":3,"parameterNumberName":"V-component_of_WINDS"},"data":[0,0,0,0,0,0,0,0,0,0,0,0,0,0,0,0,0,0,0,0,0,0,0,0,0,0,0,0,0,0,0,0,0,0,0,0,0,0,0,0,0,0,0,0,0,0,0,0,0,0,0,0,0,0,0,0,0,0,-1.0857,-1.0857,0,-1.0876,-1.0876,-1.0876,-1.0845,-1.0844,-1.0843,-1.0842,-1.0863,-1.0864,-1.0866,0,0,0,0,0,0,0,0,0,0,0,0,0,-1.0794,-1.0795,-1.0857,-1.0857,-1.0857,-1.0876,-1.0876,-1.0876,-1.0845,-1.0844,-1.0843,-1.0841,-1.0862,-1.0864,-1.0866,0,0,0,0,0,0,0,0,0,0,0,0,0,-1.0818,-1.0796,-1.0857,-1.0844,-1.0843,-1.0876,-1.0876,-1.0876,-1.0845,-1.0844,-1.0842,-1.0841,-1.0862,-1.0864,-1.0866,-1.0913,0,0,-1.0874,-1.0875,0,0,0,0,0,0,0,0,-1.0817,-1.082,-1.0845,-1.0845,-1.0844,-1.0856,-1.0862,-1.0889,-1.0846,-1.0845,-1.0842,-1.084,-1.0862,-1.0864,-1.0872,-1.0914,-1.0915,-1.0874,-1.0875,-1.0876,-1.0877,0,0,0,0,0,0,0,-1.0815,-1.0819,-1.0864,-1.0846,-1.0845,-1.0837,-1.0839,-1.0867,-1.0862,-1.0845,-1.0842,-1.0845,-1.0861,-1.0869,-1.0872,-1.0915,-1.0874,-1.0876,-1.0877,-1.0878,-1.0998,-1.1,0,0,0,0,0,0,-1.0815,-1.0818,-1.0864,-1.0865,-1.0826,-1.084,-1.0842,-1.0854,-1.0862,-1.0861,-1.0846,-1.0843,-1.0866,-1.0869,-1.0872,-1.0929,-1.0876,-1.0878,-1.088,-1.0996,-1.0998,-1.1,0,0,0,0,0,0,-1.0814,-1.0819,-1.0863,-1.0841,-1.0846,-1.0843,-1.0857,-1.0855,-1.0863,-1.0863,-1.0862,-1.0855,-1.0865,-1.0869,-1.0903,-1.0929,-1.0879,-1.0882,-1.0994,-1.0997,-1.0999,-1.1041,0,0,0,0,0,0,-1.0812,-1.0819,-1.0837,-1.0841,-1.0847,-1.0893,-1.0858,-1.0857,-1.0867,-1.0864,-1.0871,-1.0871,-1.0864,-1.09,-1.0906,-1.0931,-1.0883,-1.0992,-1.0995,-1.0998,-1.1037,-1.1045,-1.1051,0,0,0,0,0,-1.081,-1.0848,-1.0838,-1.0843,-1.0869,-1.0895,-1.0898,-1.0889,-1.0869,-1.0887,-1.0887,-1.0871,-1.0925,-1.0904,-1.091,-1.0937,-1.099,-1.0994,-1.0998,-1.1034,-1.1043,-1.1051,0,0,0,0,0,0,-1.0847,-1.0848,-1.0837,-1.0878,-1.0886,-1.089,-1.0912,-1.0899,-1.0914,-1.091,-1.0898,-1.09,-1.0937,-1.094,-1.0916,-1.0982,-1.0954,-1.096,-1.098,-1.0988,-1.0995,-1.0994,-1.0885,0,0,0,0,0,-1.0859,-1.088,-1.088,-1.0916,-1.0921,-1.0916,-1.0927,-1.0918,-1.0927,-1.0931,-1.0933,-1.0943,-1.0962,-1.0975,-1.0992,-1.1037,-1.1039,-1.1058,-1.1065,-1.107,-1.1076,-1.11,-1.1109,-1.1013,-1.1013,-1.1013,0,0,-1.0886,-1.0889,-1.0903,-1.0923,-1.0929,-1.0951,-1.0919,-1.0944,-1.096,-1.0935,-1.0968,-1.0969,-1.0979,-1.1019,-1.1037,-1.1023,-1.1103,-1.1076,-1.108,-1.1082,-1.1105,-1.1115,-1.1123,-1.1016,-1.1015,-1.1015,0,0,-1.0946,-1.0951,-1.0981,-1.0988,-1.0996,-1.0993,-1.1,-1.1005,-1.1005,-1.1038,-1.1019,-1.1038,-1.1071,-1.1079,-1.1088,-1.115,-1.1136,-1.1156,-1.1192,-1.1216,-1.1224,-1.1231,-1.1254,-1.1263,-1.1161,-1.1161,-1.1161,0,-1.0979,-1.1011,-1.0999,-1.1025,-1.1035,-1.1012,-1.1043,-1.105,-1.1064,-1.1072,-1.1055,-1.1096,-1.1101,-1.1143,-1.1158,-1.1165,-1.1173,-1.1156,-1.1224,-1.123,-1.1237,-1.1259,-1.1268,-1.1163,-1.1163,-1.1163,-1.1163,0,-1.1051,-1.1074,-1.1097,-1.1112,-1.1124,-1.1152,-1.1144,-1.1158,-1.1149,-1.1147,-1.118,-1.1185,-1.1203,-1.1212,-1.1203,-1.1252,-1.1244,-1.1226,-1.1197,-1.1248,-1.1269,-1.1278,-1.1167,-1.1166,-1.1165,-1.1165,0,0,-1.1137,-1.1143,-1.1153,-1.1159,-1.1166,-1.1184,-1.1211,-1.1228,-1.1241,-1.1251,-1.1274,-1.1302,-1.1286,-1.1295,-1.1287,-1.1307,-1.1358,-1.1287,-1.1287,-1.1301,-1.1414,-1.1429,-1.1439,-1.1348,-1.1349,-1.135,-1.1414,0,-1.1199,-1.1246,-1.1235,-1.1282,-1.1303,-1.1281,-1.1304,-1.1312,-1.1311,-1.1328,-1.1326,-1.1347,-1.1323,-1.1329,-1.1348,-1.1348,-1.1381,-1.1343,-1.137,-1.1372,-1.1371,-1.1449,-1.1465,-1.1525,-1.1421,-1.1423,-1.1424,0,-1.1277,-1.129,-1.1339,-1.1343,-1.1351,-1.1373,-1.1388,-1.1405,-1.1413,-1.141,-1.142,-1.1408,-1.1435,-1.1405,-1.1443,-1.1418,-1.1428,-1.1429,-1.1431,-1.1435,-1.1402,-1.1457,-1.1543,-1.1553,-1.1436,-1.1435,-1.1434,0,-1.1337,-1.1366,-1.1399,-1.1405,-1.141,-1.1426,-1.1429,-1.1435,-1.1446,-1.1459,-1.1467,-1.1483,-1.1492,-1.1505,-1.1497,-1.1476,-1.1537,-1.1506,-1.1537,-1.1537,-1.1552,-1.1552,-1.1643,-1.1556,-1.1556,-1.1556,-1.1555,0,-1.1407,-1.1438,-1.1426,-1.1447,-1.1481,-1.1468,-1.1502,-1.1503,-1.1508,-1.1529,-1.151,-1.153,-1.1517,-1.1536,-1.153,-1.1563,-1.1567,-1.1566,-1.1565,-1.1569,-1.157,-1.1577,-1.1574,-1.1558,-1.1557,-1.1557,-1.1557,0,-1.1481,-1.1474,-1.1508,-1.151,-1.1511,-1.1537,-1.1538,-1.1558,-1.1554,-1.158,-1.1586,-1.1581,-1.1602,-1.1595,-1.1617,-1.1613,-1.1656,-1.1648,-1.1653,-1.1652,-1.1684,-1.1681,-1.1785,-1.1798,-1.1701,-1.1702,-1.1702,0,-1.1527,-1.1551,-1.1555,-1.1567,-1.1571,-1.1591,-1.1602,-1.159,-1.1602,-1.1613,-1.1631,-1.165,-1.1665,-1.17,-1.1699,-1.1716,-1.171,-1.1744,-1.1712,-1.1716,-1.1712,-1.1711,-1.1714,-1.1752,-1.1753,-1.1754,-1.1754,0,-1.1611,-1.1606,-1.1623,-1.1638,-1.1652,-1.1663,-1.1673,-1.1684,-1.1672,-1.1687,-1.1708,-1.172,-1.1743,-1.1763,-1.1778,-1.1781,-1.1767,-1.1764,-1.1772,-1.1778,-1.1781,-1.1781,-1.1673,-1.1762,-1.1762,-1.1761,-1.1761,-1.176,-1.1674,-1.1694,-1.17,-1.1719,-1.1725,-1.1734,-1.1753,-1.1751,-1.1768,-1.1786,-1.1777,-1.1802,-1.1809,-1.1828,-1.1833,-1.1853,-1.1839,-1.1851,-1.1854,-1.1858,-1.1863,-1.1776,-1.1855,-1.1855,-1.1855,-1.1855,-1.1854,0,-1.1758,-1.176,-1.1778,-1.1792,-1.1807,-1.179,-1.18,-1.1814,-1.1836,-1.1843,-1.1858,-1.1883,-1.1902,-1.1901,-1.1919,-1.1934,-1.1928,-1.194,-1.1939,-1.1941,-1.1873,-1.1865,-1.1944,-1.1944,-1.1944,-1.1944,-1.1944,-1.1944,-1.1804,-1.1837,-1.1833,-1.1868,-1.187,-1.1894,-1.1902,-1.191,-1.1916,-1.1944,-1.196,-1.1959,-1.1963,-1.1981,-1.1998,-1.1997,-1.2005,-1.202,-1.2017,-1.1954,-1.1945,-1.1937,-1.1929,-1.2021,-1.2021,-1.2083,-1.2083,-1.2084]}]]